Cloud_Cover
1 0 0 0 0 1 0 0 0 0 0 0 0 0 0 0 0 0 0 0 0 0 0 0 0 1 0 0 0 2 5 5
1 0 0 0 5 5 4 3 0 0 2 0 0 0 0 0 0 2 0 0 0 0 0 0 0 0 2 5 5 5 5 31
4 0 0 0 5 20 47 5 36 49 76 100 98 1 1 2 3 9 52 23 3 2 4 5 3 5 5 4 4 5 5 9
3 0 0 0 28 65 94 100 100 100 100 77 100 100 98 100 100 95 8 3 5 4 5 5 41 46 45 15 48 10 2 0
5 4 5 4 39 60 100 100 100 99 86 28 79 100 100 100 100 100 100 79 85 96 93 73 45 78 100 100 96 51 56 72
4 4 5 5 0 0 4 92 100 100 63 30 94 73 100 100 100 100 100 100 99 100 100 100 100 100 100 100 70 97 100 100
5 3 2 4 2 3 3 20 100 100 91 87 26 28 100 100 100 100 100 100 100 100 100 100 100 100 100 100 100 99 100 100
5 11 39 6 4 4 5 5 90 100 100 100 94 24 50 70 100 100 100 100 100 100 100 100 100 100 100 100 100 100 100 100
66 5 5 5 5 5 5 5 5 19 93 100 100 100 69 98 79 100 100 56 5 51 100 100 49 57 100 100 100 100 100 100
1 5 5 7 5 5 5 5 5 5 7 77 91 68 84 93 96 100 100 76 7 5 5 5 8 42 17 19 94 100 100 100
1 0 4 4 3 5 4 5 4 5 2 4 5 12 5 42 59 100 100 100 78 15 16 5 2 1 4 7 53 43 100 100
0 0 0 0 1 1 0 0 0 0 0 0 0 0 0 13 70 16 93 94 81 52 81 5 5 2 0 7 14 71 50 100
0 5 5 5 5 5 21 9 5 5 4 0 0 0 0 0 31 98 24 82 96 8 36 28 33 5 16 0 7 6 100 100
0 5 5 6 40 41 20 5 5 5 5 4 0 0 0 0 0 18 46 100 98 94 100 100 82 64 65 47 11 2 73 100
18 5 5 8 74 100 94 88 54 12 4 2 0 0 0 0 0 2 74 100 99 100 100 100 100 100 100 81 47 40 19 2
80 30 7 42 100 100 100 100 19 0 0 0 0 0 0 4 3 17 100 100 100 100 100 100 100 100 100 100 100 100 98 50
82 100 100 100 100 100 46 5 2 0 0 0 31 64 91 21 38 87 100 100 100 100 100 100 100 100 100 100 100 100 100 100
100 100 100 100 82 15 5 1 7 5 54 100 100 100 100 100 100 100 100 100 100 100 100 100 100 100 100 100 100 100 100 100
90 100 72 58 6 6 42 52 25 25 98 100 100 100 100 100 100 100 100 100 100 100 100 100 100 100 100 100 100 100 100 100
26 11 5 7 54 80 89 95 100 99 98 100 100 100 100 100 100 100 100 100 100 100 100 100 100 100 100 100 100 100 100 100